Syracuse, NY

9:08 AM EST on December 15, 2019 (GMT -0500)
Syracuse Hancock International

Weather History for KSYR - November, 2019

Change the Weather History Date:

Tuesday, November 12, 2019

  Actual Average Record
Temperature  
Mean Temperature 23 °F 42 °F  
Max Temperature 27 °F 50 °F 71 °F (1964)
Min Temperature 19 °F 34 °F 18 °F (1933)
Degree Days  
Heating Degree Days 42 23  
Month to date heating degree days 323 255  
Since 1 July heating degree days 758 872  
Cooling Degree Days 0 0  
Month to date cooling degree days 0 0  
Year to date cooling degree days 622 569  
Moisture  
Dew Point 17 °F    
Average Humidity 78    
Maximum Humidity 88    
Minimum Humidity 51    
Precipitation  
Precipitation 0.26 in 0.11 in 0.95 in (1975)
Month to date precipitation 0.86 1.40  
Year to date precipitation 41.87 33.12  
Snow  
Snow 3.20 in 0.30 in 11.10 in (1996)
Month to date snowfall 6.3 2.1  
Since 1 July snowfall 6.3 2.5  
Since 1 September snowfall 6.3 2.5  
Snow Depth 3.0 in    
Sea Level Pressure  
Sea Level Pressure 30.02 in    
Wind  
Wind Speed 10 mph ()    
Max Wind Speed 25 mph    
Max Gust Speed 33 mph    
Visibility 3.4 miles    
Events Snow    
T = Trace of Precipitation, MM = Missing Value Source: Averaged Metar Reports

Daily Weather History Graph

Daily Weather History Graph

Search for Another Location

Airport or City:

Astronomy

Nov. 12, 2019 Rise Set
Actual Time 6:52 AM EST 4:43 PM EST
Civil Twilight 6:22 AM EST 5:14 PM EST
Nautical Twilight 5:48 AM EST 5:48 PM EST
Astronomical Twilight 5:14 AM EST 6:21 PM EST
Moon 5:10 PM EST (11/12) 6:40 AM EST (11/12)
Length of Visible Light 10h 51m
Length of Day
9h 50m
Full, 100% of the Moon is Illuminated
Nov 12
Full
Nov 19
Last Quarter
Nov 26
New
Dec 4
First Quarter
Dec 12
Full

Hourly Weather History & Observations

Time (EST) Temp. Windchill Dew Point Humidity Pressure Visibility Wind Dir Wind Speed Gust Speed Precip Events Conditions
12:01 AM 26.1 °F 16.8 °F 23.0 °F 88% 29.86 in 6.0 mi NW 9.2 mph - 0.00 in Snow Light Snow
12:13 AM 26.1 °F 18.4 °F 23.0 °F 88% 29.86 in 2.5 mi NW 6.9 mph - 0.02 in Snow Light Snow
12:33 AM 26.1 °F 17.6 °F 23.0 °F 88% 29.86 in 1.5 mi NW 8.1 mph - 0.03 in Snow Light Snow
12:54 AM 25.0 °F 15.5 °F 21.9 °F 88% 29.86 in 1.0 mi NW 9.2 mph - 0.06 in Snow Light Snow
1:00 AM 25.0 °F 16.3 °F 21.9 °F 88% 29.85 in 0.8 mi NW 8.1 mph - 0.01 in Snow Light Snow
1:28 AM 25.0 °F 15.5 °F 21.9 °F 88% 29.85 in 0.8 mi NW 9.2 mph - 0.05 in Snow Light Snow
1:39 AM 24.1 °F 13.7 °F 21.0 °F 88% 29.85 in 0.8 mi NW 10.4 mph - 0.06 in Snow Light Snow
1:54 AM 24.1 °F 13.7 °F 19.9 °F 84% 29.86 in 0.8 mi NW 10.4 mph - 0.08 in Snow Light Snow
2:01 AM 24.1 °F 13.1 °F 19.9 °F 84% 29.85 in 1.0 mi NW 11.5 mph - 0.00 in Snow Light Snow
2:24 AM 23.0 °F 11.7 °F 19.0 °F 85% 29.86 in 1.8 mi NW 11.5 mph - 0.02 in Snow Light Snow
2:54 AM 21.9 °F 11.7 °F 18.0 °F 85% 29.87 in 1.5 mi NW 9.2 mph - 0.04 in Snow Light Snow
3:27 AM 21.9 °F 11.7 °F 18.0 °F 85% 29.87 in 0.8 mi NW 9.2 mph - 0.02 in Snow Light Snow
3:32 AM 21.9 °F 11.7 °F 18.0 °F 85% 29.88 in 0.8 mi WNW 9.2 mph - 0.02 in Snow Light Snow
3:54 AM 21.9 °F 12.5 °F 18.0 °F 85% 29.90 in 1.2 mi NW 8.1 mph - 0.03 in Snow Light Snow
4:10 AM 21.9 °F 11.0 °F 17.1 °F 82% 29.89 in 3.0 mi NW 10.4 mph - 0.00 in Snow Light Snow
4:28 AM 21.0 °F 9.9 °F 17.1 °F 85% 29.90 in 3.0 mi NW 10.4 mph - 0.01 in Snow Light Snow
4:54 AM 21.0 °F 10.6 °F 17.1 °F 85% 29.91 in 2.5 mi NW 9.2 mph - 0.01 in Snow Light Snow
5:11 AM 21.0 °F 9.9 °F 17.1 °F 85% 29.91 in 2.0 mi NW 10.4 mph - 0.00 in Snow Light Snow
5:49 AM 21.2 °F 8.9 °F 15.8 °F 80% 29.93 in 8.0 mi WNW 12.7 mph - 0.00 in Snow Light Snow
6:54 AM 21.0 °F 9.9 °F 15.1 °F 78% 29.97 in 9.0 mi NNW 10.4 mph - 0.02 in Snow Light Snow
7:08 AM 21.0 °F 8.6 °F 14.0 °F 74% 29.97 in 9.0 mi NNW 12.7 mph - 0.00 in Snow Light Snow
7:47 AM 21.9 °F 13.4 °F 16.0 °F 78% 30.00 in 9.0 mi NNW 6.9 mph - 0.00 in Snow Light Snow
7:54 AM 21.9 °F 14.5 °F 16.0 °F 78% 30.01 in 6.0 mi NNW 5.8 mph - 0.00 in Snow Light Snow
8:22 AM 21.9 °F 13.4 °F 16.0 °F 78% 30.01 in 2.0 mi NW 6.9 mph - 0.00 in Snow Light Snow
8:31 AM 21.9 °F 13.4 °F 16.0 °F 78% 30.02 in 1.8 mi NNW 6.9 mph - 0.00 in Snow Light Snow
8:38 AM 21.9 °F 14.5 °F 16.0 °F 78% 30.02 in 1.8 mi NW 5.8 mph - 0.00 in Snow Light Snow
8:51 AM 21.2 °F 14.9 °F 17.6 °F 86% 30.02 in 2.0 mi NNW 4.6 mph - 0.00 in Snow Light Snow
8:54 AM 21.9 °F 15.7 °F 17.1 °F 82% 30.03 in 2.5 mi NNW 4.6 mph - 0.00 in Snow Light Snow
9:07 AM 21.9 °F 14.5 °F 16.0 °F 78% 30.02 in 2.0 mi NNW 5.8 mph - 0.00 in Snow Light Snow
9:24 AM 21.0 °F 11.4 °F 16.0 °F 81% 30.03 in 1.8 mi NNW 8.1 mph - 0.00 in Snow Light Snow
9:54 AM 21.9 °F 15.7 °F 17.1 °F 82% 30.04 in 1.8 mi NW 4.6 mph - 0.00 in Snow Light Snow
10:54 AM 25.0 °F 14.2 °F 19.9 °F 81% 30.05 in 1.0 mi WNW 11.5 mph - 0.01 in Snow Light Snow
11:06 AM 25.0 °F 12.6 °F 19.0 °F 78% 30.04 in 3.0 mi WNW 15.0 mph - 0.00 in Snow Light Snow
11:54 AM 25.0 °F 13.6 °F 18.0 °F 75% 30.05 in 2.5 mi WNW 12.7 mph - 0.00 in Snow Light Snow
12:16 PM 26.1 °F 13.6 °F 19.0 °F 75% 30.04 in 3.0 mi WNW 16.1 mph 21.9 mph 0.00 in Snow Light Snow
12:23 PM 26.1 °F 14.0 °F 18.0 °F 71% 30.04 in 2.5 mi WNW 15.0 mph - 0.00 in Snow Light Snow
12:37 PM 26.1 °F 12.3 °F 18.0 °F 71% 30.05 in 5.0 mi WNW 19.6 mph 24.2 mph 0.00 in Snow Light Snow
12:54 PM 25.0 °F 10.9 °F 17.1 °F 72% 30.06 in 5.0 mi NW 19.6 mph 24.2 mph 0.00 in Snow Light Snow
1:54 PM 25.0 °F 12.2 °F 14.0 °F 63% 30.07 in 10.0 mi West 16.1 mph 26.5 mph 0.00 in   Mostly Cloudy
2:54 PM 26.1 °F 12.7 °F 12.0 °F 55% 30.10 in 10.0 mi WNW 18.4 mph 24.2 mph N/A   Mostly Cloudy
3:54 PM 24.1 °F 10.6 °F 12.0 °F 60% 30.11 in 10.0 mi WNW 17.3 mph 24.2 mph 0.00 in Snow Light Snow
4:54 PM 24.1 °F 10.6 °F 8.1 °F 51% 30.12 in 10.0 mi WNW 17.3 mph 23.0 mph 0.00 in   Mostly Cloudy
5:54 PM 21.9 °F 6.2 °F 10.0 °F 60% 30.14 in 2.0 mi West 21.9 mph 32.2 mph 0.00 in Snow Light Snow
6:21 PM 23.0 °F 7.2 °F 10.4 °F 59% 30.13 in 4.0 mi WNW 23.0 mph 32.2 mph N/A Snow Light Snow
6:54 PM 23.0 °F 8.3 °F 8.1 °F 53% 30.15 in 9.0 mi WNW 19.6 mph - 0.00 in Snow Light Snow
7:46 PM 21.0 °F 7.6 °F 15.1 °F 78% 30.15 in 1.5 mi WSW 15.0 mph - 0.00 in Snow Light Snow
7:54 PM 21.0 °F 7.6 °F 16.0 °F 81% 30.16 in 1.2 mi WSW 15.0 mph - 0.00 in Snow Light Snow
7:58 PM 21.0 °F 7.6 °F 17.1 °F 85% 30.15 in 0.8 mi WSW 15.0 mph - 0.00 in Snow Light Snow
8:11 PM 19.9 °F 5.7 °F 16.0 °F 85% 30.15 in 1.5 mi WSW 16.1 mph - 0.01 in Snow Light Snow
8:24 PM 19.9 °F 6.2 °F 16.0 °F 85% 30.15 in 1.5 mi West 15.0 mph - 0.01 in Snow Light Snow
8:37 PM 19.9 °F 7.3 °F 16.0 °F 85% 30.16 in 1.5 mi West 12.7 mph - 0.01 in Snow Light Snow
8:54 PM 21.0 °F 7.6 °F 16.0 °F 81% 30.17 in 1.5 mi West 15.0 mph - 0.01 in Snow Light Snow
9:01 PM 21.0 °F 9.3 °F 16.0 °F 81% 30.16 in 3.0 mi West 11.5 mph - 0.00 in Snow Light Snow
9:20 PM 21.0 °F 9.3 °F 16.0 °F 81% 30.16 in 2.0 mi West 11.5 mph - 0.00 in Snow Light Snow
9:54 PM 21.0 °F 6.2 °F 12.9 °F 71% 30.18 in 3.0 mi WNW 18.4 mph 25.3 mph 0.00 in Snow Light Snow
10:54 PM 21.0 °F 8.1 °F 12.0 °F 68% 30.19 in 3.0 mi WNW 13.8 mph 27.6 mph 0.00 in Snow Light Snow
11:54 PM 19.9 °F 7.3 °F 7.0 °F 57% 30.19 in 6.0 mi WNW 12.7 mph 27.6 mph 0.00 in Snow Light Snow